Wind_Speed
55 54 52 51 51 52 53 53 55 56 57 57 58 58 57 56 54 53 52 49 43 37 33 31 32 32 32 32 31 33 35 34 36 42 44 43 47 52 58 62 65 67 68 67 66 63 61 59 56 53 52 53 55 55 56 56 56 56 56 55 55 55 55 55 55 55 55 54 54 54 55 55 56 56 56 56 56 56 55 54 53 52 52 53 53 54
51 48 47 48 50 52 53 54 56 56 56 56 57 57 56 56 55 54 52 49 43 38 33 32 32 32 32 33 34 35 36 37 38 39 37 35 39 48 56 60 63 66 68 68 67 65 63 63 61 57 53 52 53 55 57 58 58 57 57 57 57 57 57 57 57 56 56 56 56 56 57 57 58 58 58 59 59 59 59 58 57 56 55 55 55 56
49 46 47 49 50 51 51 52 55 56 56 56 56 56 56 56 55 54 52 49 44 39 36 35 33 33 34 35 34 36 38 36 34 36 35 35 36 42 50 55 59 62 64 65 65 65 65 64 64 62 60 58 56 56 57 58 59 58 58 58 58 58 58 58 58 58 58 58 58 58 59 59 59 60 60 61 61 62 62 61 61 60 59 59 59 59
49 48 50 52 52 51 50 51 53 55 55 55 55 54 55 56 55 53 51 48 44 41 39 37 35 35 35 35 36 39 41 39 35 36 39 41 37 35 42 50 55 58 57 56 56 59 61 61 63 63 63 63 62 61 60 59 59 59 59 59 59 59 59 59 59 60 60 60 60 60 61 61 61 62 62 62 63 64 64 64 63 63 63 63 63 63
52 52 54 54 53 52 50 50 51 52 53 54 54 54 55 55 53 52 50 48 45 42 41 39 37 35 35 36 38 41 44 44 43 40 42 44 37 31 39 50 55 55 52 50 49 50 53 55 57 60 61 63 63 63 63 62 61 61 61 61 61 61 61 61 61 61 62 62 62 62 63 63 63 63 64 64 65 65 66 66 65 65 66 66 66 66
56 55 57 56 55 54 51 50 50 50 52 53 54 55 56 55 53 50 49 47 45 43 43 41 38 36 35 36 39 43 47 49 50 48 46 46 42 39 44 48 49 50 49 49 50 50 51 52 53 55 57 59 61 63 64 64 63 63 63 63 63 64 64 64 64 64 64 64 64 64 64 65 65 65 65 66 67 67 67 67 67 67 67 67 67 67
58 58 59 58 57 55 52 51 50 50 51 52 54 56 57 56 52 50 48 47 46 45 44 41 38 37 37 38 41 46 49 51 53 52 49 48 49 48 48 49 50 49 48 49 50 52 52 52 52 52 53 55 57 59 61 63 64 65 65 65 66 66 66 67 67 66 66 66 66 66 66 66 67 67 67 67 68 68 68 68 68 68 68 68 68 69
60 61 61 60 58 56 53 52 51 51 51 52 55 58 58 56 53 50 49 48 47 46 44 41 39 38 39 40 42 46 50 52 53 54 52 48 49 45 40 46 51 48 47 48 48 50 51 51 51 51 52 53 53 54 56 58 61 63 65 66 67 68 68 68 68 68 68 68 67 67 68 68 68 68 68 68 68 69 69 69 69 68 68 68 69 69
60 62 62 61 60 56 53 53 54 54 53 53 57 60 60 57 53 51 50 49 48 47 44 42 41 41 40 40 41 43 47 50 52 55 55 52 53 48 36 34 39 40 40 42 44 46 47 48 49 49 49 49 50 51 53 56 58 61 64 65 67 68 68 69 69 68 68 68 68 68 68 68 68 68 68 68 69 69 69 69 69 69 69 69 69 69
60 62 65 65 62 59 57 57 58 57 55 57 61 62 60 58 54 52 51 50 49 46 43 43 43 42 42 42 41 41 44 49 52 55 57 57 58 56 49 39 33 31 32 35 39 42 44 47 48 48 49 49 49 51 52 55 57 59 62 63 65 66 67 67 68 67 67 67 67 67 67 67 68 68 68 68 67 67 67 68 68 68 68 67 67 67
59 62 65 65 64 62 62 62 61 59 59 61 63 62 60 57 54 52 51 50 48 44 42 44 44 43 43 42 42 43 46 50 53 55 57 60 60 59 59 55 47 41 42 44 46 46 47 48 48 50 50 51 51 52 53 54 55 57 59 61 62 64 65 65 66 65 65 65 66 66 65 65 65 65 65 65 65 65 65 65 65 65 65 65 64 64
57 59 62 63 64 66 66 65 64 62 62 63 63 62 60 57 54 52 50 49 45 42 43 46 45 44 43 42 43 46 48 50 53 55 56 59 62 61 61 61 58 53 50 51 51 50 50 49 49 50 51 52 52 53 53 54 55 57 58 59 60 62 62 63 63 63 63 63 63 63 63 63 63 63 63 63 63 63 63 63 62 62 62 61 61 61
54 55 57 60 63 65 66 66 65 64 64 65 63 62 59 56 53 50 46 44 41 41 45 48 46 45 44 44 45 46 48 50 52 54 56 58 61 62 61 61 60 58 53 52 52 51 51 51 51 52 52 53 54 54 54 54 55 57 57 58 59 60 60 61 61 61 61 61 61 61 61 61 61 61 62 62 62 61 61 61 60 60 60 60 60 59
53 53 54 55 58 61 64 65 63 62 63 64 63 61 58 54 50 46 42 41 41 44 48 50 48 45 44 44 44 45 47 49 50 53 55 57 58 59 61 62 61 61 60 58 56 54 54 54 55 56 56 55 55 54 54 55 56 57 57 58 58 58 59 59 59 60 60 60 60 60 60 60 60 61 61 61 61 61 60 60 60 60 60 59 59 58
53 51 50 51 53 56 60 61 62 63 64 64 63 62 59 53 48 46 44 43 43 45 49 51 48 44 43 43 43 45 46 47 48 51 54 56 57 57 59 61 62 63 63 62 60 58 58 58 59 59 59 58 57 56 55 55 56 57 58 57 57 57 57 58 58 59 59 59 59 59 59 59 59 60 60 60 60 60 60 60 60 59 58 58 57 56
55 51 50 50 52 54 57 59 62 65 67 66 65 63 57 52 50 49 47 46 46 47 50 51 46 42 43 44 45 46 46 46 47 50 53 56 58 58 59 61 63 66 66 65 64 63 62 62 62 61 61 60 58 57 56 56 56 57 58 57 57 57 57 58 58 58 58 58 58 58 58 58 58 59 59 59 59 59 58 58 58 57 57 57 57 56
54 53 52 52 53 55 57 59 62 65 66 65 64 59 54 54 55 51 48 48 49 50 50 49 45 43 44 46 46 46 45 46 47 48 51 54 57 60 61 63 66 68 69 67 66 65 65 65 64 62 61 59 58 57 56 56 57 57 57 57 57 57 57 58 58 59 59 59 59 59 59 59 59 59 59 58 58 58 58 58 58 58 58 58 58 57
54 53 53 53 54 57 59 61 63 64 64 63 60 57 57 60 57 51 49 49 49 48 48 48 44 43 45 46 46 45 44 45 46 48 51 53 56 59 61 64 66 67 67 66 64 63 62 61 60 59 58 57 56 55 55 56 56 56 57 57 57 57 57 58 58 59 59 59 60 60 60 60 60 60 60 60 60 60 60 60 60 60 60 60 59 58
55 55 55 55 55 58 60 63 64 63 61 60 59 60 62 61 55 50 49 47 46 47 47 47 45 43 45 45 44 44 45 46 48 50 52 54 55 57 58 59 60 60 60 60 60 59 58 57 57 56 56 55 55 54 54 54 55 55 55 55 55 55 55 56 57 57 58 59 59 60 60 60 61 61 61 61 61 62 62 62 62 61 61 60 60 60
56 56 56 56 57 60 61 61 60 59 58 59 60 61 62 60 54 51 50 47 47 47 46 47 45 42 43 44 44 46 48 49 50 51 51 52 53 54 54 54 53 53 54 54 55 56 56 55 55 55 55 54 53 52 52 52 52 51 51 51 52 52 52 53 53 54 55 56 57 58 59 59 59 60 60 61 62 63 63 63 63 62 62 61 61 61
57 58 58 58 59 59 56 54 55 56 57 59 59 59 58 57 54 53 51 49 48 47 46 47 44 41 44 46 47 50 51 50 50 51 51 51 51 51 51 51 51 51 52 52 54 55 55 56 55 55 54 52 51 50 49 49 49 48 48 48 49 49 49 50 51 52 53 54 55 56 57 57 57 58 59 60 61 62 63 63 63 63 62 62 61 62
57 57 58 58 58 56 53 53 56 58 59 60 60 59 58 58 56 54 52 49 47 46 46 47 45 45 48 50 50 51 52 51 51 51 51 51 51 51 50 50 51 52 52 53 54 56 56 56 55 54 53 51 49 48 47 47 47 46 46 47 47 48 48 49 51 52 53 54 55 56 56 56 57 58 58 59 60 61 61 61 61 61 61 61 61 62
56 57 57 57 56 56 55 56 58 59 60 62 63 62 62 61 59 57 52 49 49 48 46 46 46 48 50 51 51 51 52 52 52 52 52 52 51 50 49 50 51 53 54 55 55 56 55 54 53 52 50 49 47 46 46 47 46 46 47 47 47 48 49 50 52 53 54 55 55 56 56 56 57 58 58 59 60 60 60 60 60 60 59 59 60 60
56 57 57 56 56 57 57 57 58 60 60 61 62 62 62 61 59 57 55 53 53 50 48 47 47 48 49 50 51 52 53 53 52 52 53 52 51 50 50 52 53 55 56 55 55 54 53 52 51 49 48 47 46 46 47 47 47 47 48 48 49 50 51 52 53 54 54 55 55 56 56 56 57 57 58 59 59 59 59 59 59 59 58 58 58 58
55 57 56 56 56 57 57 57 58 58 57 56 57 58 59 59 59 58 56 55 53 50 48 49 48 48 49 50 51 52 53 53 53 53 53 52 51 51 52 53 55 56 55 53 53 52 52 51 50 49 48 48 48 48 48 48 48 49 49 49 50 51 52 53 54 55 55 55 55 56 56 56 56 56 57 58 59 59 59 59 58 58 57 57 56 56
55 57 57 55 55 55 54 54 55 55 54 54 55 56 57 58 58 57 56 55 51 48 48 49 48 49 50 51 52 53 54 54 54 54 53 53 52 52 53 54 54 54 52 51 51 51 51 51 50 50 50 50 50 50 50 50 50 50 50 51 52 52 53 54 54 55 55 55 55 55 55 56 56 56 57 58 58 59 59 58 57 56 55 55 55 54
53 56 57 56 55 54 54 54 55 55 55 54 55 55 56 57 56 56 55 52 49 48 49 49 49 50 52 53 54 54 54 54 54 54 53 52 52 52 53 53 52 51 49 49 49 50 50 50 50 51 51 52 52 52 53 53 52 52 52 52 53 53 53 54 55 55 55 55 54 54 54 55 56 57 58 58 58 58 58 57 56 55 54 54 54 53
51 53 55 57 56 56 55 55 55 55 54 54 54 55 56 57 57 56 52 49 49 50 50 49 50 51 53 54 55 55 54 54 54 53 52 52 52 52 52 52 51 50 49 49 49 49 49 50 50 51 52 53 53 54 54 54 54 53 53 53 54 54 54 55 55 55 55 54 54 53 54 55 57 58 59 58 58 57 56 57 57 56 55 55 54 54
49 51 54 56 57 57 56 56 55 54 54 53 54 55 56 57 57 55 52 51 51 50 49 49 50 51 53 55 55 55 54 54 54 53 52 52 52 52 52 51 50 50 49 49 49 49 49 49 50 50 51 52 53 53 54 54 54 54 54 54 54 55 55 55 55 55 55 54 53 53 55 56 58 59 59 58 57 56 56 56 57 57 57 57 56 56
49 50 52 54 57 57 57 57 56 55 54 53 54 55 56 57 56 55 55 54 52 49 48 50 50 51 53 55 55 54 54 53 53 52 52 52 52 52 51 50 50 49 49 49 49 49 48 49 49 48 49 50 50 51 52 52 53 54 54 55 55 55 55 55 55 55 55 54 53 54 55 57 59 59 58 57 56 56 57 57 58 59 59 58 58 57
51 50 50 52 56 57 58 58 57 57 56 55 55 56 57 57 56 55 55 54 53 50 49 49 49 51 54 54 54 53 53 53 53 53 53 53 52 51 50 49 49 49 48 48 48 48 48 48 48 48 48 49 49 50 51 52 53 54 55 55 56 56 56 55 55 55 54 54 54 55 56 58 59 58 57 57 57 58 58 59 59 59 59 59 58 58
52 52 51 52 54 56 58 58 58 57 57 57 56 56 56 56 55 54 54 54 53 53 52 50 50 52 54 54 53 53 53 54 54 54 54 53 52 51 50 50 49 48 48 49 49 48 47 47 47 48 49 50 50 51 51 52 52 53 54 55 57 57 55 55 55 54 54 54 55 56 57 58 58 58 58 58 58 59 60 60 61 61 61 60 59 58
54 53 53 53 54 56 58 58 58 58 58 57 56 55 55 54 53 53 54 54 54 54 53 52 52 54 54 54 54 54 54 55 55 55 54 53 51 51 51 50 49 48 49 49 48 47 46 46 47 48 49 50 51 52 52 52 52 52 52 55 58 57 55 54 54 54 54 55 55 56 57 58 59 59 59 59 59 60 61 61 63 63 61 60 59 59
55 54 54 54 55 56 58 60 60 60 58 56 55 55 54 54 53 53 54 55 55 55 55 55 55 55 55 54 55 56 56 56 55 54 53 52 51 51 51 51 49 49 49 49 48 47 46 46 47 49 50 51 52 52 53 53 53 52 52 54 57 57 55 54 54 54 54 55 56 57 58 58 59 60 60 60 60 61 62 63 64 63 61 60 59 60
56 56 56 55 55 57 59 62 62 60 58 57 57 57 56 55 54 54 55 54 54 54 56 56 57 56 56 56 57 57 57 57 55 54 53 52 51 51 51 50 50 50 50 49 48 47 47 47 48 50 51 52 53 53 53 53 53 53 53 54 55 56 56 55 55 55 55 56 57 57 58 59 60 61 61 61 62 63 64 64 62 61 60 60 60 61
57 57 57 57 57 58 60 61 61 61 61 61 60 59 58 57 56 56 55 54 53 55 56 57 57 57 57 57 58 58 58 57 55 54 53 52 51 50 50 50 51 51 50 50 49 49 49 50 51 52 52 53 53 53 53 54 54 53 54 54 55 56 56 56 56 56 56 57 57 58 59 60 60 61 62 63 64 64 63 60 59 58 59 59 60 61
57 57 57 58 58 58 58 60 61 62 63 63 61 60 59 59 58 58 57 55 54 55 57 57 57 57 57 58 59 59 58 56 54 53 53 52 52 51 52 52 52 51 51 51 51 51 52 53 54 54 53 53 53 53 53 54 54 54 54 55 55 56 56 56 56 56 57 57 58 58 59 60 61 62 63 63 62 60 57 56 57 57 58 59 60 61
56 56 56 57 57 57 58 60 61 62 62 61 61 62 62 61 60 59 58 57 55 55 57 58 58 58 59 59 60 59 58 55 54 54 55 55 54 54 53 53 53 52 52 53 53 54 54 55 55 55 54 53 53 53 53 54 54 54 54 54 55 55 56 56 56 56 56 57 57 58 59 59 60 60 59 57 56 55 55 56 57 58 59 61 62 63
54 54 54 56 57 57 58 60 60 60 60 61 63 64 63 62 61 60 59 57 56 56 58 59 60 60 61 61 61 60 58 56 57 57 57 56 55 55 54 54 54 54 55 56 56 56 56 56 56 55 54 54 53 53 54 54 54 54 54 54 54 54 55 55 56 56 56 57 57 58 57 57 57 55 54 53 53 53 54 56 58 60 61 63 64 66
53 53 54 55 56 57 59 60 60 60 61 63 64 64 63 62 61 59 57 56 56 58 59 60 61 62 62 62 62 60 59 59 59 58 57 56 56 56 56 56 56 56 57 58 57 57 57 57 56 55 54 54 54 54 54 54 53 52 52 52 53 53 54 54 55 56 56 56 56 56 55 54 54 54 53 53 53 54 56 58 59 61 63 64 66 67
50 51 52 54 56 58 59 59 60 61 62 64 65 64 63 61 58 55 54 56 59 61 61 62 63 63 63 63 62 62 61 60 59 57 56 57 58 58 58 58 58 58 59 59 58 58 58 57 56 55 54 54 54 54 53 52 51 50 51 51 52 52 53 53 54 54 54 54 54 54 53 54 54 54 54 55 56 57 58 60 61 63 64 66 67 69
45 46 47 50 53 55 56 57 58 59 61 63 63 62 60 57 54 53 55 59 62 63 63 64 64 64 64 64 63 62 61 60 59 58 58 59 60 60 59 59 59 60 60 60 60 59 58 57 55 55 54 54 54 53 52 51 50 49 50 51 51 52 52 53 53 53 53 52 53 53 54 54 55 56 57 57 59 60 61 62 63 64 66 67 69 70
41 42 44 46 48 50 52 53 54 55 56 59 60 59 57 55 55 56 59 62 64 65 66 66 66 65 65 65 64 63 62 61 59 59 60 60 60 60 61 61 61 61 61 61 61 59 57 56 55 55 54 54 53 51 50 49 49 49 50 51 52 52 52 53 53 52 51 52 52 53 55 56 57 58 59 60 61 62 62 63 64 65 67 69 70 72
37 39 41 44 46 48 49 50 52 53 56 58 59 59 59 59 60 62 64 66 67 68 67 67 67 67 66 66 65 64 64 62 61 60 61 61 61 61 62 62 62 62 62 61 59 57 56 55 55 54 54 52 51 49 49 49 50 50 50 51 51 52 52 52 52 51 51 52 53 54 56 57 59 59 60 61 61 62 63 64 65 67 68 70 71 73
34 36 39 41 44 46 47 49 51 53 55 57 58 60 61 61 62 64 66 67 68 69 69 69 68 68 68 67 66 66 65 63 62 62 61 61 62 63 64 63 63 63 61 59 57 55 54 54 54 53 51 50 49 49 49 50 50 50 50 50 51 51 51 51 51 51 52 53 54 56 57 58 59 59 60 61 62 62 64 65 66 67 69 70 71 73
30 33 35 38 41 42 44 45 47 49 52 54 55 57 58 58 60 63 65 66 67 68 69 69 69 68 69 68 68 67 66 64 63 62 62 62 64 65 65 64 63 61 59 57 55 54 53 53 52 50 48 48 48 49 50 50 49 49 50 50 50 50 50 50 50 51 52 53 55 56 57 57 58 58 60 61 62 63 64 65 66 67 68 70 71 72
26 29 32 34 37 39 41 43 45 47 50 52 53 54 55 56 59 62 64 66 67 68 69 69 68 68 68 68 68 68 66 64 63 63 63 64 64 65 64 63 61 59 57 55 54 53 52 50 48 47 47 48 49 49 50 49 49 49 49 49 48 47 47 48 48 49 50 52 53 55 56 57 58 59 60 61 62 63 64 65 66 67 68 70 71 72
22 24 27 30 33 36 38 41 43 44 46 48 50 51 53 54 56 59 62 64 66 67 69 68 68 67 67 68 68 67 64 63 63 63 63 64 64 63 62 60 58 56 55 54 52 50 48 47 46 47 48 49 49 49 49 49 48 48 47 46 45 45 46 46 47 48 50 51 53 54 56 57 58 59 60 61 62 62 63 64 66 67 68 70 71 71
20 21 24 27 29 32 35 37 38 40 41 43 45 46 48 50 53 55 58 60 63 65 67 67 67 67 67 68 67 65 63 62 62 62 62 62 61 60 59 57 55 53 53 52 50 48 47 46 46 47 48 48 48 48 48 47 47 47 46 46 45 46 46 47 48 49 51 52 54 55 57 58 59 60 60 61 61 62 63 64 66 67 68 69 70 70
19 21 23 25 26 27 28 30 31 33 35 37 39 41 43 46 48 50 53 56 58 60 62 64 65 66 66 66 64 63 61 61 61 60 60 59 58 57 55 53 52 51 51 51 49 48 47 47 46 47 48 47 47 47 47 47 46 46 46 46 46 47 48 49 50 51 52 53 55 56 57 58 59 59 60 61 61 62 63 64 66 66 67 67 68 67
19 20 21 22 22 23 23 24 26 28 30 33 35 37 39 41 43 46 48 51 53 55 58 59 61 62 62 62 60 59 58 58 57 57 56 56 54 53 51 50 50 50 51 51 50 49 48 47 47 47 47 47 47 47 47 46 46 46 45 46 46 47 49 50 51 52 53 55 56 57 57 57 58 59 60 61 62 63 63 64 65 66 65 65 65 64
Wind_Direction
232 233 235 236 236 235 235 234 235 236 236 235 235 234 233 233 234 235 238 240 239 237 235 233 231 228 225 222 214 210 211 207 212 228 233 232 237 242 246 250 254 257 260 262 262 262 263 263 263 262 261 259 259 259 260 261 261 262 263 263 264 265 265 266 267 267 268 270 271 272 274 275 276 277 278 279 280 281 282 282 282 282 282 282 282 283
229 230 232 233 233 233 232 232 233 234 235 235 235 235 234 233 233 234 236 238 238 236 233 230 226 223 220 216 211 208 208 202 208 222 224 223 237 248 251 253 255 257 260 262 263 263 262 262 261 261 260 259 259 259 260 261 261 262 263 264 264 265 265 265 266 266 268 270 271 272 273 274 275 277 278 279 280 280 281 281 282 282 283 282 283 283
227 228 230 232 232 233 233 233 234 234 234 234 235 235 235 234 233 233 235 236 235 233 230 227 223 220 217 213 208 204 202 197 206 222 220 215 226 244 253 256 258 260 261 263 264 264 263 262 261 260 260 260 260 260 261 261 262 262 263 264 265 265 265 265 266 267 268 270 271 271 272 273 274 276 277 278 279 280 281 282 283 284 284 284 284 283
223 225 228 230 231 232 232 233 234 235 235 234 235 235 235 234 232 232 232 232 232 230 229 226 222 219 215 210 205 202 201 195 200 217 223 221 221 234 249 255 259 261 262 263 263 263 263 262 261 260 259 260 260 261 261 261 262 263 263 264 264 264 264 265 266 267 268 269 270 270 271 272 274 275 276 277 279 280 281 282 283 284 284 285 284 284
220 221 224 226 228 229 230 231 233 234 235 234 234 234 234 234 232 230 229 229 228 228 228 226 223 220 215 210 203 201 203 199 198 207 219 222 218 226 245 254 256 257 258 260 262 262 262 262 262 260 259 259 259 260 261 261 262 262 263 264 264 264 264 265 266 267 267 268 269 270 271 272 274 275 276 277 278 279 280 281 282 282 283 283 284 284
219 221 223 225 225 226 226 228 231 232 232 233 233 233 233 232 230 228 227 226 225 225 225 224 221 219 215 210 205 202 203 202 201 205 214 218 214 221 241 250 254 255 256 259 261 262 261 261 261 261 261 261 261 260 260 261 262 263 263 264 265 265 266 267 268 268 269 269 270 271 272 273 274 275 276 277 278 279 280 280 281 281 282 282 283 283
219 221 223 225 225 225 225 226 228 230 231 231 232 232 233 232 229 226 224 224 223 222 223 222 220 219 215 211 206 203 204 206 204 204 211 216 215 222 239 248 254 258 259 259 261 262 262 262 261 261 261 262 262 262 262 262 262 263 264 264 265 266 267 268 268 269 270 270 271 272 272 273 274 275 275 276 278 279 279 280 280 281 282 282 283 284
220 222 223 224 225 225 225 226 228 229 230 230 231 232 232 231 228 225 222 221 221 220 221 220 219 218 217 214 210 206 206 209 208 205 208 213 215 222 236 249 255 258 259 258 258 258 259 260 260 259 257 258 259 261 262 262 263 263 263 264 265 266 266 267 268 269 270 271 271 272 273 273 274 275 276 277 277 278 279 280 280 281 282 283 285 286
221 222 224 224 225 225 224 226 227 228 228 228 229 230 231 230 228 224 221 220 219 219 219 218 217 217 216 215 214 210 210 213 213 210 209 210 214 217 221 238 252 254 254 255 254 254 255 255 256 256 256 257 259 261 262 263 263 263 264 264 265 265 266 267 268 269 270 271 272 272 273 274 274 275 276 277 277 278 279 280 281 282 282 284 285 286
219 221 223 223 223 223 223 224 226 227 226 227 229 230 231 230 227 225 222 220 219 218 218 217 216 216 216 215 213 212 213 217 217 214 212 211 215 219 219 225 240 245 246 251 253 254 255 256 258 258 260 263 265 266 266 265 264 264 264 264 265 265 266 266 267 268 269 270 271 272 272 273 274 275 276 276 277 278 279 280 281 282 283 284 285 286
219 220 222 223 223 222 222 223 223 224 225 227 228 230 231 230 228 226 223 220 219 217 217 218 217 216 216 216 214 212 214 217 218 218 216 214 218 224 227 230 236 243 249 255 258 260 262 264 265 266 267 269 270 270 269 267 266 265 265 265 265 266 266 266 267 268 268 269 270 270 271 272 273 274 275 275 276 277 278 279 280 282 283 284 285 286
221 222 223 224 223 224 224 224 224 223 225 227 229 230 231 231 230 228 225 223 219 215 217 218 217 216 216 216 216 215 215 215 217 219 219 219 220 226 231 234 238 244 251 255 257 261 265 268 270 271 272 272 272 271 269 268 268 267 267 267 267 267 267 268 268 268 269 269 270 270 271 272 273 274 274 275 276 277 278 279 280 281 283 284 285 286
223 224 225 225 225 226 226 227 227 227 228 229 230 231 232 232 233 232 230 227 219 214 218 219 217 215 214 215 217 218 219 217 218 220 221 223 224 227 233 237 239 243 248 253 256 259 263 266 269 270 271 271 271 270 269 269 268 268 267 267 267 268 268 269 269 270 270 270 271 272 272 273 274 274 275 275 276 277 278 279 280 281 282 284 285 286
224 225 226 227 227 228 229 229 230 231 232 234 234 234 234 234 235 235 233 229 220 215 220 220 216 214 214 215 218 220 221 221 221 221 223 226 228 230 234 238 241 245 250 254 258 260 262 264 266 267 269 269 269 269 269 268 267 267 266 266 266 267 268 268 269 270 271 271 272 272 273 273 274 274 275 276 276 277 278 279 280 281 282 283 284 284
221 224 226 229 229 230 230 230 230 230 231 232 233 233 234 234 234 232 229 226 220 217 221 221 216 213 213 215 217 220 222 223 223 224 225 227 230 233 235 238 242 247 250 254 257 260 261 263 265 266 267 268 268 268 268 267 267 266 266 266 266 267 268 268 269 270 270 271 271 272 273 273 274 274 275 276 276 277 278 279 280 281 282 282 283 284
219 219 222 225 227 228 228 229 229 230 231 231 232 232 234 234 233 230 226 222 219 216 220 222 216 211 213 215 217 219 221 223 225 227 228 229 232 235 238 241 244 246 248 250 254 257 259 261 263 265 266 267 267 267 267 266 266 266 266 267 267 268 268 269 269 270 270 271 272 272 273 273 274 274 275 276 276 277 278 278 279 280 281 282 283 283
220 220 220 221 223 224 225 226 228 230 232 233 235 236 236 234 231 228 225 223 220 218 220 222 216 211 214 217 218 220 222 223 225 228 230 231 234 236 239 242 244 244 245 247 251 255 258 260 261 263 264 265 266 266 266 266 266 267 267 268 268 269 270 270 271 271 272 272 272 273 273 274 274 275 275 276 276 277 277 278 278 279 280 281 282 283
219 220 221 221 223 224 223 224 226 228 230 232 234 235 234 233 231 229 227 225 223 221 221 223 218 213 215 219 220 222 223 226 228 230 233 233 234 236 239 241 243 245 245 247 251 254 257 258 260 261 262 263 264 265 265 266 266 267 267 268 269 270 270 271 272 272 273 273 273 274 274 274 275 275 276 276 277 277 277 278 279 279 280 281 281 282
217 218 220 221 223 224 224 224 225 226 228 230 231 231 231 232 231 230 230 228 227 224 222 223 220 215 217 220 222 224 226 227 230 232 235 236 237 239 241 244 247 249 250 251 253 256 258 260 261 262 263 263 264 265 266 266 267 267 268 268 269 270 271 271 272 273 273 273 274 274 275 275 276 276 277 277 277 278 278 278 279 279 280 281 281 282
217 218 219 221 222 224 224 225 227 228 228 230 231 232 233 234 231 230 230 228 226 224 221 221 220 217 219 221 223 226 227 228 231 234 238 240 242 244 247 250 253 255 256 258 260 261 263 264 265 265 265 265 266 266 267 267 267 268 268 268 269 269 270 271 273 273 274 274 275 275 275 276 277 277 278 278 278 278 278 278 279 279 280 280 281 282
219 219 219 220 223 225 226 227 229 230 230 231 232 234 236 238 235 233 231 229 228 225 222 221 218 217 220 221 222 227 228 230 234 237 240 243 246 249 251 254 257 259 262 264 266 267 267 267 267 267 267 266 266 266 267 267 267 268 269 270 271 272 273 273 274 275 275 276 276 276 277 278 278 278 279 279 279 279 279 279 280 280 281 281 281 282
220 220 221 221 223 225 226 226 228 228 228 229 230 231 233 235 235 233 232 232 232 229 226 223 218 217 221 222 223 227 230 233 235 238 242 245 248 251 255 258 260 263 266 267 267 268 267 267 267 266 266 265 266 266 267 267 268 269 270 271 272 273 274 275 276 276 276 277 277 277 278 279 279 279 280 280 280 280 281 281 282 282 283 283 283 283
219 221 222 223 224 224 224 224 226 227 227 228 228 229 230 231 232 232 230 229 229 228 226 224 220 219 223 225 226 229 233 235 238 241 244 247 250 253 256 259 262 264 266 266 267 266 266 266 266 265 265 264 264 265 266 267 267 268 270 271 272 273 275 276 276 277 277 278 278 278 278 279 279 280 280 280 281 281 282 283 283 283 284 284 284 283
219 220 222 223 224 225 225 225 226 227 227 228 230 231 232 233 233 233 231 228 226 224 223 222 220 221 225 228 229 231 235 238 240 243 246 248 250 253 255 258 261 263 265 265 265 265 265 265 265 265 264 264 263 263 264 266 268 269 271 272 274 275 276 277 278 279 279 279 279 279 278 278 279 279 280 280 281 282 283 284 284 285 285 284 284 283
219 220 222 223 224 226 227 227 228 229 229 231 233 234 235 235 235 235 233 231 229 225 223 222 220 220 224 228 230 233 236 239 242 244 246 248 250 252 254 258 262 264 264 264 264 264 264 264 263 263 263 264 263 264 264 266 268 270 272 274 275 277 278 279 280 281 281 280 280 279 278 278 278 278 279 279 281 282 283 284 285 285 285 285 284 283
219 220 221 223 225 227 229 230 232 233 233 232 234 235 236 237 237 236 236 234 232 228 226 224 222 222 224 227 230 233 236 239 241 244 246 248 251 253 257 261 264 264 263 263 262 262 262 263 263 263 264 265 265 265 266 267 269 271 273 274 275 277 279 280 281 281 281 281 280 279 278 278 277 277 278 279 281 283 284 285 286 286 285 285 285 284
221 221 221 222 224 226 228 229 231 232 232 232 233 234 236 238 238 238 237 236 234 230 228 226 224 224 226 228 231 233 236 239 242 244 247 250 253 256 260 263 263 262 262 262 262 262 262 263 263 264 265 266 267 268 268 269 271 272 274 275 276 277 279 280 281 281 281 281 280 279 278 277 276 276 277 279 281 283 285 286 287 287 287 286 286 285
223 224 223 223 223 225 227 228 230 231 231 232 233 234 235 236 238 238 239 238 235 233 231 229 228 228 229 231 232 234 236 239 242 245 249 252 254 258 261 261 260 260 261 262 262 262 263 264 264 265 267 268 269 270 271 272 272 273 275 276 277 278 280 281 281 281 281 280 278 277 276 275 275 276 278 280 282 284 286 288 289 289 288 288 287 285
225 226 226 224 224 225 227 228 230 231 232 232 233 235 235 236 236 237 237 237 236 234 233 232 231 231 232 234 235 237 238 240 243 247 250 252 256 259 259 258 259 260 260 261 261 263 264 265 266 268 269 270 271 272 273 273 274 275 276 277 278 279 280 281 281 281 280 278 276 275 275 275 276 277 279 280 282 284 286 288 289 289 289 289 288 286
225 227 228 227 226 226 227 228 229 230 231 232 233 235 236 236 236 236 236 236 236 235 234 234 234 234 235 236 238 239 241 244 246 249 251 254 256 257 257 257 258 259 259 260 262 263 265 267 268 270 271 272 272 273 274 274 275 276 277 278 279 280 281 281 281 280 279 277 275 274 274 274 276 278 280 281 283 285 286 287 288 289 289 289 288 287
225 227 229 229 228 228 228 229 230 230 231 231 232 233 235 236 237 237 237 237 236 235 234 234 234 235 237 239 240 242 244 246 247 249 251 254 255 255 255 256 257 257 259 261 262 264 266 268 270 272 272 273 274 274 275 275 276 277 279 280 281 281 281 282 281 280 278 275 274 274 274 275 277 278 280 281 283 285 286 287 287 289 289 288 287 286
226 227 228 229 230 229 229 230 231 231 232 232 232 234 235 236 237 237 238 238 237 236 234 233 233 234 236 238 240 241 243 244 246 248 251 252 253 253 254 255 256 257 259 261 263 265 267 270 272 274 274 275 275 275 275 276 277 278 280 281 281 281 282 282 282 279 277 275 274 274 274 275 277 278 279 281 283 285 286 287 288 289 289 288 286 285
228 228 229 230 229 229 229 231 232 233 233 234 234 236 237 238 238 238 238 238 237 236 234 233 232 234 235 237 239 240 241 243 246 249 251 252 252 253 254 254 256 258 260 262 264 267 269 272 274 275 276 277 277 277 277 277 277 278 279 280 280 281 282 282 281 279 277 275 275 274 275 276 277 278 280 282 284 285 287 288 290 290 289 287 285 284
228 229 230 231 231 229 228 229 231 232 233 235 236 237 238 239 239 238 237 237 236 236 235 234 234 235 236 238 239 240 242 244 247 250 251 252 252 253 253 255 257 259 261 263 266 269 271 273 276 277 277 277 277 277 278 278 278 278 278 278 280 282 282 281 280 279 277 276 275 275 276 277 279 280 282 284 285 286 287 289 290 290 288 286 284 284
229 230 231 232 232 231 228 228 229 230 232 234 235 236 237 237 238 238 238 237 236 236 236 235 235 236 237 239 240 242 244 247 249 250 251 251 252 252 254 256 258 260 262 265 268 271 273 276 277 278 277 277 276 277 277 277 278 278 278 278 279 280 281 281 280 279 278 278 277 278 279 280 281 283 284 285 286 287 288 289 289 288 287 286 286 286
231 232 232 232 232 231 229 229 228 229 230 231 233 234 235 236 237 238 238 237 235 235 235 235 236 237 238 240 242 244 246 248 249 250 250 251 251 252 254 256 259 261 264 268 271 273 276 277 278 278 277 277 276 276 277 277 278 278 278 278 278 279 279 279 279 279 279 279 279 280 281 282 283 284 286 287 287 288 289 289 289 289 288 288 288 288
233 233 233 232 231 229 229 229 228 228 229 230 232 233 234 235 237 238 238 237 235 234 233 234 236 237 239 241 243 245 247 249 250 250 250 250 250 251 253 256 259 262 266 269 272 275 276 277 278 278 278 278 277 277 278 278 278 278 279 279 278 278 279 279 279 280 280 280 280 281 282 283 284 286 287 287 288 288 288 289 289 290 290 290 290 289
233 232 231 231 230 228 228 228 228 229 230 230 232 233 233 234 236 238 239 239 237 234 233 233 234 236 238 241 243 245 247 249 249 248 248 248 249 251 254 257 261 264 267 269 272 274 276 278 279 280 280 279 279 279 279 279 279 279 279 279 279 279 279 280 280 280 280 280 281 282 283 284 285 286 287 287 287 288 288 289 289 290 290 290 290 290
232 231 230 230 229 228 228 229 229 229 231 232 233 233 233 234 235 237 238 239 238 235 233 233 234 236 238 240 243 245 247 247 247 246 247 248 250 253 256 258 261 264 267 269 272 275 277 279 280 281 280 280 280 280 280 280 280 280 280 280 280 280 281 281 282 282 282 282 282 283 284 285 286 286 287 288 288 288 289 289 289 289 290 290 290 289
234 233 232 232 232 231 230 231 231 230 231 232 233 234 234 234 235 237 238 238 235 233 232 233 235 237 239 241 243 245 246 247 246 247 248 249 252 254 257 259 262 265 268 271 274 277 278 280 280 280 280 280 280 280 281 280 280 280 280 280 281 281 282 282 282 282 282 282 283 283 284 285 286 286 287 288 289 289 290 289 289 289 289 289 289 289
234 233 232 232 233 233 232 232 233 233 233 233 234 235 235 235 234 235 235 233 231 231 231 232 234 237 239 242 244 246 246 247 248 248 249 250 252 255 257 260 263 266 269 273 276 278 279 279 279 279 279 279 280 281 280 280 279 279 279 280 280 281 281 281 281 281 281 282 282 283 284 285 286 287 287 288 290 290 290 289 289 289 289 289 289 290
233 231 230 230 231 231 231 230 230 231 233 234 233 233 233 232 230 229 228 227 228 229 230 232 234 237 239 242 244 246 247 248 248 249 250 251 253 256 259 262 265 268 272 275 277 278 278 278 277 277 278 279 280 280 279 278 277 277 278 278 278 279 279 280 280 280 281 281 282 283 284 285 286 287 288 288 289 289 289 289 289 289 290 290 291 292
228 228 227 228 228 228 228 226 226 227 229 230 230 227 226 226 225 223 222 223 225 227 229 231 234 236 239 241 244 245 247 247 248 250 251 253 255 258 262 265 267 270 273 275 276 276 276 276 276 277 278 278 278 277 276 275 275 275 276 277 278 279 280 280 280 280 280 281 282 282 284 285 286 287 287 286 287 288 289 289 290 291 291 292 293 294
223 224 224 225 225 225 224 222 221 222 223 225 224 222 220 220 220 220 220 221 223 226 229 231 234 236 239 241 243 245 247 248 249 251 253 256 259 261 264 266 269 272 273 274 274 273 273 274 276 277 277 277 275 274 273 273 274 275 277 278 279 281 282 282 282 281 280 281 281 282 283 284 285 285 285 286 287 288 289 291 292 293 294 294 295 296
220 221 222 223 224 224 223 221 220 220 222 223 223 222 221 219 219 220 221 222 224 227 229 231 233 236 239 241 244 245 247 249 251 253 255 258 261 263 265 268 270 271 271 271 271 271 272 274 275 275 275 274 273 272 273 274 276 277 279 280 281 283 283 283 283 281 280 280 281 281 282 283 284 284 285 287 288 290 291 292 294 295 295 296 296 297
219 220 221 223 223 223 223 222 221 221 223 224 224 224 225 223 222 222 224 225 226 229 231 233 235 237 239 242 244 246 248 249 252 254 257 259 262 264 267 268 269 268 268 268 269 270 271 272 273 273 272 271 270 271 273 275 276 278 278 280 281 282 282 281 281 280 279 280 280 281 282 283 284 285 287 288 290 292 293 294 295 295 296 296 297 298
219 220 221 222 223 223 223 222 221 221 223 224 225 225 226 225 224 224 225 227 229 231 233 235 237 239 241 243 245 247 249 251 253 255 258 260 262 264 265 266 266 266 266 267 268 269 270 271 271 270 269 268 269 271 272 274 275 276 277 278 279 279 279 279 279 279 279 280 281 282 283 284 286 287 289 290 292 293 294 295 295 296 296 297 298 299
217 219 221 223 224 224 224 224 224 223 224 226 227 227 227 227 227 227 227 229 230 232 235 237 239 241 243 245 247 249 250 252 254 256 259 260 262 263 263 264 264 264 265 266 268 268 268 268 267 267 267 267 269 270 272 274 276 277 278 279 279 279 279 279 280 281 281 282 283 284 285 286 288 289 291 292 293 293 294 295 295 297 298 299 301 301
213 215 217 220 221 222 224 225 225 226 227 228 229 230 230 230 230 230 230 231 232 234 236 238 240 242 244 246 248 250 252 253 255 257 258 259 260 260 261 262 263 263 264 265 265 265 266 266 266 266 267 268 271 273 275 277 279 280 280 280 280 281 281 281 282 282 283 284 285 286 287 289 290 291 292 292 293 294 294 296 297 299 300 301 302 303
208 211 214 215 215 217 220 222 224 226 228 230 231 232 232 232 233 233 234 235 235 236 238 240 241 243 245 246 248 250 252 253 255 256 256 257 257 258 259 259 260 260 261 261 262 262 263 263 263 264 267 270 272 275 277 279 280 281 281 281 281 281 282 282 283 283 284 285 286 287 289 290 291 291 292 293 294 295 296 298 300 301 303 303 304 304
209 210 211 212 211 210 211 213 215 218 222 225 227 229 230 231 232 233 234 235 236 237 239 240 242 244 245 247 248 250 251 252 252 253 254 254 255 255 256 256 256 256 258 260 262 262 262 262 262 264 266 269 272 275 277 279 280 280 280 280 280 281 281 282 283 284 285 286 288 289 290 291 291 292 293 295 296 298 300 301 303 303 304 305 305 305
Height
10596 10601 10608 10614 10618 10620 10622 10624 10625 10625 10629 10634 10636 10640 10647 10653 10658 10662 10663 10669 10678 10685 10690 10694 10696 10700 10703 10707 10711 10714 10714 10713 10713 10709 10713 10722 10724 10722 10720 10717 10716 10716 10716 10718 10722 10727 10731 10735 10738 10740 10741 10742 10742 10741 10741 10740 10740 10741 10742 10743 10744 10744 10745 10744 10744 10744 10744 10744 10745 10744 10742 10741 10740 10740 10739 10738 10738 10738 10738 10739 10739 10738 10737 10736 10736 10736
10592 10600 10606 10607 10609 10610 10613 10616 10617 10619 10624 10628 10631 10636 10642 10648 10654 10658 10661 10667 10675 10681 10686 10688 10692 10695 10698 10701 10704 10707 10707 10708 10708 10709 10715 10723 10726 10723 10719 10716 10715 10713 10713 10715 10718 10723 10727 10730 10732 10735 10736 10737 10737 10737 10737 10736 10736 10737 10737 10737 10738 10739 10739 10739 10739 10739 10739 10739 10739 10739 10738 10736 10735 10735 10734 10733 10733 10732 10732 10733 10733 10733 10732 10731 10730 10730
10592 10599 10600 10600 10602 10604 10608 10611 10612 10614 10618 10622 10626 10631 10637 10642 10648 10654 10658 10664 10670 10676 10679 10683 10686 10689 10691 10696 10700 10702 10703 10704 10707 10710 10714 10721 10724 10722 10717 10714 10712 10710 10711 10713 10715 10718 10720 10723 10726 10728 10730 10731 10732 10732 10732 10732 10733 10733 10733 10732 10733 10733 10734 10734 10734 10735 10734 10734 10734 10734 10733 10732 10731 10730 10729 10728 10727 10726 10726 10726 10726 10726 10726 10725 10724 10724
10588 10593 10592 10593 10596 10599 10604 10606 10608 10611 10614 10618 10622 10626 10631 10635 10643 10650 10654 10659 10665 10670 10674 10678 10681 10684 10687 10692 10695 10697 10700 10702 10703 10706 10710 10714 10718 10719 10715 10710 10707 10706 10707 10709 10711 10712 10714 10716 10719 10721 10724 10725 10726 10727 10727 10728 10728 10728 10728 10727 10727 10728 10728 10728 10729 10729 10729 10728 10728 10728 10728 10727 10727 10726 10725 10723 10721 10720 10720 10720 10720 10720 10719 10718 10717 10717
10582 10584 10583 10585 10589 10593 10598 10601 10604 10607 10611 10614 10617 10621 10623 10629 10637 10645 10650 10655 10660 10665 10669 10673 10677 10680 10684 10688 10691 10693 10696 10698 10699 10701 10704 10708 10714 10717 10711 10703 10700 10701 10702 10704 10705 10706 10708 10710 10712 10715 10717 10719 10720 10721 10722 10723 10723 10723 10723 10722 10722 10722 10722 10722 10722 10723 10723 10723 10723 10723 10722 10722 10721 10721 10720 10718 10716 10715 10715 10715 10715 10714 10713 10712 10711 10711
10575 10577 10577 10579 10583 10588 10593 10597 10600 10602 10606 10608 10611 10614 10616 10622 10632 10640 10646 10650 10656 10660 10663 10667 10673 10677 10680 10683 10686 10688 10690 10693 10694 10696 10699 10703 10708 10708 10701 10693 10692 10695 10696 10697 10698 10699 10702 10705 10707 10710 10711 10713 10715 10716 10717 10717 10718 10718 10718 10717 10717 10717 10716 10716 10716 10716 10716 10717 10717 10717 10717 10716 10716 10715 10714 10713 10711 10710 10709 10709 10709 10709 10708 10706 10705 10704
10569 10571 10571 10574 10578 10583 10589 10592 10595 10597 10600 10603 10606 10606 10609 10616 10627 10635 10641 10645 10650 10654 10657 10664 10669 10673 10675 10678 10680 10682 10684 10686 10688 10692 10695 10696 10697 10695 10690 10686 10686 10688 10689 10691 10692 10693 10696 10699 10703 10705 10707 10708 10709 10710 10711 10712 10712 10713 10712 10712 10711 10711 10711 10710 10710 10710 10710 10711 10711 10711 10711 10710 10709 10709 10709 10708 10706 10705 10704 10703 10703 10702 10702 10700 10698 10697
10564 10565 10566 10570 10574 10580 10586 10589 10591 10592 10595 10599 10599 10598 10602 10610 10621 10629 10635 10640 10644 10648 10654 10661 10665 10668 10670 10672 10675 10677 10679 10680 10683 10687 10688 10688 10688 10686 10685 10682 10681 10683 10684 10686 10687 10688 10691 10693 10696 10699 10701 10703 10704 10705 10706 10706 10707 10706 10706 10705 10705 10705 10704 10704 10704 10704 10704 10705 10705 10705 10704 10704 10703 10703 10703 10702 10701 10699 10698 10697 10697 10696 10696 10694 10692 10691
10558 10560 10562 10565 10569 10576 10583 10584 10584 10585 10590 10592 10590 10590 10595 10604 10615 10623 10628 10634 10638 10644 10651 10657 10660 10662 10665 10668 10671 10675 10677 10677 10678 10680 10680 10680 10678 10678 10679 10678 10677 10678 10679 10681 10683 10684 10686 10687 10690 10693 10696 10697 10699 10700 10701 10701 10701 10700 10699 10699 10698 10698 10698 10698 10698 10698 10699 10699 10699 10698 10698 10698 10698 10697 10697 10696 10695 10694 10692 10691 10690 10690 10689 10688 10687 10685
10549 10552 10554 10558 10564 10571 10574 10574 10575 10579 10584 10583 10581 10584 10590 10598 10609 10617 10624 10629 10635 10642 10649 10652 10654 10657 10660 10663 10667 10671 10672 10670 10670 10673 10674 10674 10672 10673 10674 10673 10672 10673 10676 10678 10679 10679 10681 10682 10684 10687 10690 10692 10693 10695 10696 10695 10695 10694 10693 10692 10692 10692 10692 10692 10692 10693 10693 10693 10693 10692 10692 10692 10692 10692 10691 10691 10690 10689 10687 10685 10684 10683 10683 10682 10681 10679
10543 10545 10548 10553 10560 10563 10564 10565 10568 10573 10576 10574 10575 10580 10586 10594 10604 10612 10620 10625 10632 10641 10645 10646 10650 10653 10656 10659 10662 10664 10662 10663 10665 10667 10669 10670 10670 10670 10670 10669 10669 10670 10671 10673 10674 10675 10676 10678 10679 10681 10684 10686 10687 10688 10688 10688 10688 10687 10686 10686 10686 10685 10685 10686 10687 10687 10687 10687 10687 10687 10687 10687 10686 10686 10685 10684 10684 10683 10682 10680 10678 10677 10676 10676 10675 10673
10539 10542 10546 10551 10555 10556 10558 10560 10563 10567 10568 10568 10572 10577 10583 10591 10599 10608 10616 10623 10632 10639 10639 10641 10645 10649 10653 10655 10656 10656 10657 10659 10661 10663 10665 10666 10666 10665 10665 10666 10667 10667 10668 10668 10670 10671 10672 10673 10675 10676 10678 10679 10681 10682 10682 10682 10681 10681 10680 10680 10679 10679 10679 10679 10680 10680 10681 10680 10681 10681 10681 10681 10680 10680 10679 10678 10677 10677 10676 10675 10673 10672 10671 10670 10669 10668
10536 10540 10543 10547 10550 10552 10554 10557 10561 10565 10565 10566 10570 10575 10581 10589 10597 10606 10615 10623 10632 10634 10633 10636 10640 10644 10649 10650 10650 10652 10654 10657 10658 10659 10661 10662 10663 10663 10662 10662 10663 10664 10664 10663 10665 10667 10669 10670 10671 10672 10673 10674 10675 10676 10677 10677 10676 10675 10674 10674 10673 10673 10672 10673 10673 10673 10673 10674 10674 10674 10675 10674 10674 10673 10672 10671 10671 10670 10669 10668 10667 10666 10665 10664 10664 10663
10533 10537 10540 10543 10547 10549 10552 10556 10561 10565 10565 10566 10570 10574 10581 10589 10597 10606 10614 10621 10626 10627 10626 10629 10634 10640 10645 10646 10648 10650 10651 10653 10655 10657 10658 10658 10659 10660 10659 10659 10659 10658 10658 10658 10660 10663 10665 10666 10667 10668 10669 10669 10669 10671 10671 10671 10670 10669 10668 10668 10668 10667 10667 10667 10667 10667 10667 10667 10667 10668 10668 10667 10666 10666 10665 10665 10664 10663 10663 10662 10661 10661 10660 10659 10658 10658
10528 10533 10538 10541 10544 10547 10549 10554 10558 10559 10558 10560 10565 10569 10577 10587 10595 10601 10607 10613 10618 10621 10620 10622 10630 10638 10642 10644 10645 10645 10646 10650 10652 10653 10654 10655 10655 10654 10654 10654 10652 10651 10651 10653 10657 10659 10661 10662 10662 10663 10664 10664 10665 10666 10667 10666 10664 10662 10662 10662 10662 10662 10662 10662 10661 10661 10661 10661 10661 10662 10661 10661 10660 10659 10659 10658 10658 10657 10656 10656 10655 10655 10654 10653 10653 10652
10523 10528 10532 10534 10538 10540 10543 10547 10550 10549 10549 10554 10557 10564 10576 10585 10589 10593 10599 10605 10610 10613 10613 10617 10627 10635 10637 10638 10639 10640 10643 10646 10647 10648 10649 10649 10648 10648 10648 10647 10645 10644 10646 10650 10654 10656 10656 10657 10658 10659 10660 10660 10661 10661 10661 10660 10658 10656 10656 10657 10657 10657 10657 10656 10656 10655 10655 10655 10655 10656 10655 10654 10654 10653 10652 10652 10651 10651 10650 10650 10649 10649 10648 10647 10647 10646
10520 10524 10525 10527 10530 10532 10535 10539 10542 10543 10546 10551 10556 10567 10577 10578 10579 10587 10594 10599 10602 10606 10609 10615 10624 10630 10631 10632 10634 10637 10639 10641 10642 10642 10642 10642 10642 10641 10640 10639 10638 10639 10643 10649 10651 10652 10652 10653 10654 10656 10656 10656 10656 10656 10655 10654 10652 10651 10651 10652 10652 10652 10651 10651 10650 10649 10649 10649 10649 10649 10649 10648 10647 10647 10646 10646 10645 10645 10644 10644 10643 10642 10642 10641 10640 10640
10514 10517 10520 10522 10524 10525 10528 10531 10533 10536 10541 10548 10557 10566 10567 10565 10572 10584 10589 10593 10598 10604 10609 10613 10620 10625 10626 10627 10630 10633 10634 10635 10636 10635 10634 10634 10634 10634 10633 10633 10634 10638 10643 10647 10648 10648 10648 10649 10650 10651 10651 10651 10651 10650 10649 10648 10647 10646 10646 10646 10646 10646 10646 10645 10644 10643 10643 10642 10642 10642 10642 10641 10641 10640 10640 10639 10639 10638 10637 10637 10636 10636 10635 10634 10633 10633
10507 10510 10513 10516 10517 10519 10521 10523 10527 10533 10540 10548 10553 10555 10554 10558 10572 10582 10586 10592 10597 10602 10607 10610 10615 10621 10622 10624 10627 10627 10627 10628 10627 10626 10626 10626 10627 10628 10629 10630 10633 10637 10640 10642 10643 10643 10643 10644 10645 10645 10645 10645 10645 10644 10644 10642 10641 10641 10641 10641 10641 10641 10640 10639 10637 10636 10636 10636 10635 10635 10635 10635 10634 10634 10633 10632 10631 10631 10630 10629 10629 10628 10628 10627 10627 10626
10502 10505 10507 10510 10511 10511 10515 10521 10528 10536 10541 10544 10546 10548 10550 10558 10570 10577 10581 10588 10592 10597 10603 10606 10611 10617 10619 10620 10620 10618 10618 10619 10619 10620 10620 10621 10623 10624 10625 10628 10630 10632 10634 10636 10636 10637 10637 10638 10638 10638 10638 10638 10639 10638 10637 10636 10635 10635 10635 10635 10635 10635 10634 10633 10632 10630 10629 10628 10628 10628 10628 10628 10628 10627 10626 10625 10624 10623 10622 10622 10621 10621 10621 10620 10620 10619
10497 10499 10502 10504 10506 10509 10517 10525 10530 10534 10538 10540 10543 10548 10551 10557 10566 10572 10576 10582 10587 10593 10598 10601 10607 10612 10611 10611 10611 10609 10610 10613 10614 10615 10616 10617 10618 10619 10621 10624 10625 10627 10629 10630 10630 10631 10631 10631 10631 10631 10632 10632 10633 10633 10632 10631 10630 10630 10629 10629 10629 10629 10628 10627 10625 10624 10623 10622 10621 10621 10621 10621 10621 10620 10619 10618 10617 10616 10615 10615 10614 10614 10614 10613 10613 10612
10493 10496 10498 10501 10505 10511 10519 10522 10522 10525 10530 10533 10537 10542 10545 10550 10557 10563 10571 10579 10584 10589 10593 10597 10603 10604 10602 10603 10604 10604 10606 10608 10609 10610 10612 10613 10614 10616 10618 10620 10621 10622 10623 10624 10624 10624 10624 10625 10625 10626 10626 10627 10628 10628 10627 10626 10625 10625 10624 10624 10624 10623 10622 10621 10619 10618 10617 10616 10615 10615 10614 10614 10613 10612 10612 10611 10610 10609 10608 10608 10607 10607 10607 10606 10605 10604
10489 10491 10495 10499 10504 10508 10511 10513 10514 10518 10522 10525 10529 10533 10536 10541 10548 10556 10566 10574 10577 10582 10588 10593 10597 10598 10597 10598 10600 10601 10601 10603 10605 10606 10607 10609 10611 10613 10614 10615 10616 10616 10616 10617 10618 10618 10618 10619 10620 10621 10622 10623 10623 10623 10621 10620 10619 10619 10619 10619 10618 10617 10616 10614 10613 10612 10611 10610 10610 10609 10608 10607 10606 10605 10605 10604 10603 10602 10601 10601 10600 10600 10599 10598 10597 10596
10484 10487 10491 10496 10500 10502 10504 10508 10509 10512 10516 10521 10525 10529 10533 10539 10545 10552 10559 10564 10567 10575 10581 10586 10590 10593 10593 10594 10595 10596 10596 10598 10600 10601 10602 10605 10607 10609 10610 10610 10609 10609 10610 10611 10612 10612 10613 10613 10614 10616 10617 10618 10618 10618 10616 10615 10614 10614 10614 10613 10612 10611 10610 10609 10607 10606 10605 10604 10603 10602 10601 10600 10599 10599 10598 10597 10596 10595 10595 10594 10594 10593 10592 10591 10590 10589
10481 10484 10488 10492 10496 10498 10501 10505 10506 10510 10516 10521 10525 10529 10533 10537 10541 10546 10552 10556 10563 10571 10577 10579 10584 10586 10587 10588 10589 10590 10591 10593 10594 10595 10597 10599 10602 10603 10604 10604 10604 10604 10605 10606 10607 10607 10607 10607 10609 10610 10611 10612 10612 10612 10611 10610 10609 10609 10608 10608 10606 10605 10604 10603 10602 10600 10599 10598 10596 10595 10594 10593 10593 10592 10591 10590 10589 10588 10588 10588 10587 10586 10585 10584 10583 10581
10477 10480 10484 10489 10493 10496 10501 10505 10507 10510 10516 10519 10522 10526 10529 10532 10537 10542 10546 10552 10561 10569 10572 10575 10579 10581 10581 10582 10583 10584 10586 10587 10588 10590 10592 10594 10596 10598 10599 10599 10599 10600 10601 10602 10602 10602 10601 10602 10603 10605 10605 10606 10606 10605 10605 10604 10604 10603 10603 10602 10601 10600 10599 10597 10596 10594 10593 10591 10590 10589 10588 10587 10586 10585 10584 10583 10582 10582 10581 10581 10580 10579 10578 10576 10575 10574
10475 10477 10482 10486 10490 10493 10496 10499 10501 10505 10509 10514 10518 10522 10525 10528 10532 10536 10541 10550 10558 10563 10565 10570 10574 10574 10575 10575 10576 10578 10580 10582 10584 10585 10588 10590 10592 10593 10593 10594 10595 10596 10596 10597 10596 10596 10596 10597 10598 10598 10599 10599 10599 10599 10598 10598 10598 10597 10596 10596 10595 10594 10593 10591 10590 10588 10586 10585 10584 10582 10582 10581 10580 10579 10578 10577 10576 10575 10574 10573 10573 10571 10570 10569 10568 10567
10473 10476 10480 10483 10486 10488 10491 10494 10497 10500 10505 10510 10513 10517 10520 10523 10526 10531 10539 10548 10553 10555 10560 10565 10567 10568 10569 10569 10570 10572 10575 10577 10579 10581 10583 10586 10587 10588 10588 10589 10590 10590 10591 10591 10590 10590 10590 10591 10592 10592 10592 10592 10592 10592 10592 10591 10591 10590 10590 10589 10588 10587 10586 10585 10583 10582 10580 10579 10577 10576 10575 10574 10573 10572 10572 10571 10570 10569 10568 10567 10565 10564 10563 10562 10560 10559
10471 10473 10475 10479 10482 10485 10488 10490 10494 10497 10501 10506 10509 10512 10515 10518 10522 10528 10536 10541 10545 10550 10555 10558 10560 10562 10562 10563 10565 10567 10570 10572 10574 10577 10579 10581 10581 10582 10583 10583 10584 10584 10584 10584 10584 10584 10585 10585 10586 10586 10587 10586 10586 10585 10585 10585 10584 10584 10583 10582 10582 10581 10580 10578 10577 10575 10574 10572 10571 10570 10569 10568 10567 10566 10566 10565 10564 10563 10562 10560 10558 10557 10556 10554 10553 10552
10466 10468 10471 10475 10478 10481 10484 10486 10490 10493 10497 10501 10504 10507 10510 10513 10518 10524 10529 10534 10539 10545 10550 10552 10554 10556 10556 10558 10560 10562 10565 10568 10570 10572 10574 10575 10575 10576 10577 10577 10578 10578 10578 10578 10578 10578 10579 10580 10580 10580 10581 10580 10579 10579 10579 10578 10578 10577 10577 10576 10575 10574 10573 10572 10570 10569 10567 10566 10565 10564 10563 10562 10561 10560 10560 10559 10558 10556 10555 10553 10552 10550 10549 10547 10545 10544
10462 10464 10468 10471 10473 10476 10480 10482 10486 10489 10492 10496 10499 10502 10504 10509 10514 10520 10525 10529 10535 10540 10543 10546 10549 10550 10551 10553 10556 10558 10561 10563 10565 10567 10568 10568 10569 10570 10571 10572 10572 10573 10573 10573 10573 10573 10574 10574 10574 10574 10574 10574 10574 10573 10573 10572 10572 10571 10571 10570 10569 10567 10566 10565 10564 10562 10560 10559 10558 10557 10557 10556 10555 10555 10554 10552 10551 10550 10548 10547 10545 10543 10542 10540 10538 10536
10457 10460 10463 10465 10468 10472 10475 10478 10481 10484 10487 10491 10494 10497 10500 10505 10511 10516 10521 10526 10530 10534 10537 10540 10543 10544 10545 10547 10550 10553 10555 10557 10558 10560 10561 10562 10563 10564 10565 10566 10567 10567 10567 10567 10567 10568 10569 10569 10569 10569 10568 10567 10567 10567 10567 10567 10567 10566 10565 10564 10561 10560 10560 10558 10557 10555 10554 10553 10552 10551 10551 10550 10549 10548 10547 10546 10544 10543 10541 10540 10538 10536 10534 10532 10530 10529
10453 10456 10458 10460 10463 10467 10470 10473 10476 10479 10482 10486 10491 10495 10498 10502 10507 10511 10515 10520 10524 10528 10532 10536 10537 10537 10539 10542 10545 10547 10549 10550 10552 10553 10554 10556 10558 10559 10560 10560 10561 10562 10562 10561 10562 10563 10564 10564 10564 10563 10562 10561 10561 10561 10561 10561 10561 10561 10561 10557 10553 10553 10554 10552 10551 10549 10548 10547 10546 10546 10545 10544 10543 10542 10540 10539 10538 10536 10534 10532 10530 10528 10526 10524 10523 10521
10448 10450 10452 10455 10457 10461 10465 10468 10470 10473 10478 10484 10488 10490 10493 10497 10501 10505 10509 10513 10518 10523 10527 10529 10530 10531 10534 10537 10539 10540 10542 10544 10546 10548 10550 10552 10553 10554 10554 10554 10556 10556 10555 10555 10556 10557 10558 10558 10558 10557 10556 10555 10554 10554 10554 10554 10554 10555 10555 10552 10548 10546 10547 10546 10544 10543 10542 10541 10541 10540 10539 10538 10537 10535 10534 10533 10531 10529 10528 10525 10523 10520 10518 10516 10515 10514
10442 10444 10447 10449 10452 10455 10458 10460 10463 10469 10475 10479 10481 10483 10487 10491 10494 10498 10502 10506 10512 10517 10520 10522 10524 10526 10529 10530 10532 10534 10536 10538 10540 10542 10544 10546 10547 10547 10548 10549 10549 10549 10549 10550 10551 10552 10552 10553 10553 10551 10550 10549 10548 10548 10548 10547 10547 10548 10548 10546 10544 10541 10540 10539 10538 10537 10537 10536 10535 10534 10533 10532 10530 10529 10527 10526 10524 10522 10520 10518 10515 10513 10511 10509 10508 10506
10437 10439 10441 10444 10445 10448 10452 10455 10460 10466 10469 10471 10473 10477 10481 10485 10487 10491 10495 10500 10506 10510 10513 10516 10518 10520 10523 10524 10526 10528 10529 10532 10534 10536 10538 10540 10540 10541 10542 10542 10543 10543 10544 10544 10545 10546 10547 10547 10546 10545 10544 10543 10543 10542 10541 10541 10541 10541 10540 10539 10538 10536 10534 10533 10532 10532 10531 10530 10530 10529 10527 10526 10524 10522 10520 10518 10517 10515 10513 10510 10508 10506 10504 10502 10501 10499
10430 10433 10436 10438 10440 10443 10447 10451 10455 10458 10460 10464 10469 10472 10475 10478 10481 10484 10488 10494 10499 10503 10506 10510 10513 10515 10517 10518 10520 10521 10523 10526 10529 10531 10532 10533 10534 10535 10536 10536 10538 10539 10539 10540 10540 10541 10541 10540 10539 10538 10538 10538 10537 10536 10536 10535 10535 10534 10533 10532 10531 10530 10528 10527 10527 10526 10525 10525 10524 10523 10521 10519 10517 10515 10513 10511 10509 10507 10505 10503 10501 10499 10497 10495 10493 10491
10423 10427 10430 10432 10434 10438 10441 10443 10447 10451 10455 10460 10464 10465 10468 10471 10474 10478 10483 10488 10494 10498 10501 10504 10507 10509 10510 10512 10514 10515 10518 10522 10524 10524 10525 10526 10528 10529 10531 10533 10534 10534 10534 10534 10535 10535 10535 10534 10533 10533 10532 10531 10531 10530 10530 10529 10528 10527 10526 10525 10524 10523 10522 10521 10521 10520 10519 10518 10517 10516 10515 10513 10511 10508 10506 10504 10502 10500 10498 10496 10494 10492 10490 10488 10486 10483
10417 10421 10424 10425 10428 10433 10435 10437 10441 10447 10451 10454 10456 10457 10461 10465 10469 10473 10478 10484 10490 10494 10496 10498 10500 10502 10504 10505 10507 10510 10513 10516 10516 10516 10519 10521 10523 10525 10527 10528 10528 10528 10528 10528 10529 10529 10529 10528 10528 10527 10526 10525 10524 10523 10523 10522 10522 10521 10519 10518 10517 10517 10516 10515 10514 10513 10512 10511 10510 10509 10508 10506 10503 10501 10499 10497 10495 10493 10492 10490 10487 10485 10482 10480 10477 10475
10411 10415 10418 10421 10424 10427 10429 10432 10436 10441 10444 10445 10447 10451 10455 10459 10464 10470 10476 10482 10485 10487 10488 10491 10493 10495 10497 10499 10502 10504 10507 10507 10508 10511 10515 10517 10518 10519 10521 10522 10522 10522 10522 10522 10523 10524 10523 10522 10521 10521 10519 10518 10517 10517 10517 10516 10515 10514 10513 10512 10511 10510 10510 10509 10507 10506 10505 10504 10503 10502 10501 10499 10497 10495 10493 10491 10489 10487 10485 10483 10480 10477 10474 10472 10469 10466
10404 10408 10411 10415 10418 10421 10424 10427 10431 10435 10437 10439 10442 10445 10449 10454 10461 10469 10475 10477 10477 10478 10481 10484 10486 10489 10492 10493 10495 10497 10499 10501 10503 10508 10511 10512 10512 10513 10514 10515 10516 10516 10516 10516 10517 10517 10516 10516 10515 10514 10513 10512 10511 10511 10510 10510 10509 10508 10507 10506 10505 10504 10503 10502 10501 10500 10499 10498 10496 10495 10494 10492 10490 10488 10487 10485 10483 10480 10478 10476 10473 10470 10467 10463 10460 10457
10398 10401 10404 10407 10410 10413 10417 10421 10424 10428 10431 10434 10437 10441 10445 10450 10458 10464 10466 10466 10468 10470 10474 10477 10479 10482 10485 10486 10488 10491 10493 10496 10499 10502 10504 10505 10506 10507 10508 10509 10510 10510 10510 10511 10511 10510 10510 10509 10508 10507 10507 10506 10505 10505 10504 10503 10503 10502 10501 10500 10498 10498 10497 10496 10494 10493 10492 10491 10490 10489 10488 10486 10484 10482 10480 10478 10476 10473 10471 10468 10466 10462 10459 10455 10451 10448
10391 10395 10398 10401 10404 10407 10411 10415 10419 10423 10425 10428 10431 10436 10440 10444 10449 10452 10454 10457 10460 10463 10466 10470 10473 10476 10478 10480 10483 10485 10487 10490 10494 10496 10497 10498 10500 10502 10502 10502 10503 10504 10504 10504 10504 10504 10503 10502 10502 10501 10501 10500 10499 10499 10498 10497 10497 10496 10495 10494 10493 10492 10491 10490 10488 10487 10486 10484 10484 10483 10481 10480 10478 10476 10474 10472 10469 10467 10464 10461 10458 10455 10451 10446 10442 10438
10387 10390 10392 10395 10399 10402 10405 10409 10412 10415 10417 10419 10423 10427 10429 10433 10437 10440 10444 10449 10453 10456 10461 10465 10468 10470 10473 10475 10477 10479 10481 10485 10489 10491 10492 10493 10495 10495 10495 10496 10497 10498 10498 10497 10497 10497 10497 10496 10496 10495 10494 10494 10493 10493 10492 10491 10490 10490 10490 10489 10487 10486 10485 10483 10482 10481 10479 10478 10477 10476 10475 10474 10472 10469 10467 10465 10462 10460 10457 10453 10450 10446 10442 10437 10433 10429
10383 10385 10388 10391 10394 10397 10400 10403 10406 10408 10411 10414 10417 10420 10422 10426 10431 10435 10439 10444 10448 10451 10455 10459 10463 10466 10468 10470 10472 10474 10477 10481 10484 10485 10487 10488 10488 10488 10488 10490 10491 10491 10490 10490 10490 10490 10491 10490 10489 10489 10489 10488 10488 10487 10486 10485 10485 10485 10484 10482 10481 10480 10478 10477 10476 10475 10473 10472 10471 10470 10469 10467 10465 10463 10460 10457 10455 10452 10449 10446 10442 10438 10434 10429 10424 10420
10380 10382 10384 10387 10390 10393 10397 10400 10403 10405 10408 10410 10414 10417 10421 10425 10429 10432 10436 10440 10444 10447 10450 10454 10458 10460 10462 10464 10466 10468 10471 10476 10479 10480 10481 10482 10481 10481 10482 10483 10483 10483 10483 10483 10484 10484 10484 10484 10483 10483 10483 10482 10482 10481 10480 10479 10479 10479 10478 10477 10475 10474 10472 10471 10470 10469 10467 10466 10464 10463 10462 10460 10458 10456 10453 10450 10448 10445 10442 10438 10434 10430 10426 10421 10416 10412
10377 10379 10382 10384 10387 10390 10393 10396 10398 10401 10403 10406 10410 10414 10418 10422 10426 10429 10432 10436 10439 10442 10445 10448 10452 10455 10457 10459 10460 10462 10466 10470 10473 10474 10475 10475 10475 10475 10475 10475 10476 10476 10476 10477 10477 10478 10478 10478 10477 10477 10477 10476 10476 10476 10474 10474 10473 10473 10472 10471 10469 10467 10466 10465 10464 10463 10461 10460 10458 10456 10455 10453 10451 10449 10447 10444 10441 10438 10435 10431 10427 10423 10419 10414 10409 10404
10375 10377 10379 10382 10384 10387 10390 10392 10395 10398 10400 10403 10407 10411 10415 10419 10422 10425 10428 10431 10434 10437 10439 10442 10446 10449 10451 10452 10453 10456 10460 10465 10467 10468 10469 10468 10468 10468 10468 10469 10469 10470 10470 10470 10471 10471 10472 10472 10472 10471 10470 10470 10471 10470 10469 10468 10467 10466 10465 10464 10463 10461 10460 10458 10457 10457 10455 10453 10451 10449 10447 10446 10444 10442 10439 10437 10434 10431 10428 10424 10420 10416 10412 10407 10401 10396
10373 10375 10377 10379 10381 10384 10386 10389 10392 10395 10398 10401 10405 10408 10412 10415 10418 10421 10424 10427 10430 10432 10434 10437 10439 10442 10444 10446 10448 10451 10455 10458 10460 10461 10461 10461 10461 10462 10462 10463 10463 10464 10463 10464 10465 10465 10466 10466 10466 10465 10464 10465 10464 10463 10462 10462 10461 10460 10458 10457 10456 10455 10453 10452 10451 10450 10449 10447 10445 10442 10440 10439 10437 10434 10432 10429 10427 10424 10421 10417 10413 10409 10404 10399 10393 10388
10372 10374 10375 10377 10379 10381 10384 10387 10390 10393 10396 10399 10401 10405 10408 10411 10414 10417 10420 10423 10425 10428 10430 10432 10434 10436 10438 10440 10443 10446 10449 10451 10453 10454 10454 10454 10455 10456 10457 10457 10458 10457 10456 10457 10459 10460 10460 10460 10460 10459 10459 10459 10459 10457 10456 10456 10455 10453 10452 10451 10450 10449 10447 10446 10445 10444 10442 10440 10438 10436 10434 10432 10429 10426 10424 10422 10420 10417 10414 10410 10405 10401 10397 10391 10385 10380
10371 10373 10374 10376 10378 10380 10382 10384 10386 10389 10391 10394 10397 10399 10402 10405 10408 10411 10414 10417 10420 10422 10424 10426 10428 10430 10432 10434 10437 10440 10443 10444 10445 10446 10447 10447 10449 10450 10451 10451 10451 10451 10451 10451 10452 10453 10453 10454 10454 10454 10454 10454 10453 10452 10451 10450 10449 10447 10446 10445 10444 10443 10441 10440 10438 10437 10435 10433 10431 10429 10427 10425 10422 10419 10416 10414 10412 10409 10407 10402 10397 10393 10389 10383 10378 10373